Year,Month,Day,Hour,Minute,Value (Times are PST for temperature in C)
2016,12,04,00,00,6.50
2016,12,04,00,01,6.50
2016,12,04,00,02,6.50
2016,12,04,00,03,6.50
2016,12,04,00,04,6.50
2016,12,04,00,05,6.50
2016,12,04,00,06,6.50
2016,12,04,00,07,6.50
2016,12,04,00,08,6.50
2016,12,04,00,09,6.50
2016,12,04,00,10,6.50
2016,12,04,00,11,6.50
2016,12,04,00,12,6.50
2016,12,04,00,13,6.50
2016,12,04,00,14,6.50
2016,12,04,00,15,6.50
2016,12,04,00,16,6.50
2016,12,04,00,17,6.50
2016,12,04,00,18,6.50
2016,12,04,00,19,6.50
2016,12,04,00,20,6.50
2016,12,04,00,21,6.50
2016,12,04,00,22,6.50
2016,12,04,00,23,6.50
2016,12,04,00,24,6.50
2016,12,04,00,25,6.50
2016,12,04,00,26,6.50
2016,12,04,00,27,6.40
2016,12,04,00,28,6.40
2016,12,04,00,29,6.40
2016,12,04,00,30,6.40
2016,12,04,00,31,6.40
2016,12,04,00,32,6.40
2016,12,04,00,33,6.40
2016,12,04,00,34,6.40
2016,12,04,00,35,6.40
2016,12,04,00,36,6.40
2016,12,04,00,37,6.40
2016,12,04,00,38,6.40
2016,12,04,00,39,6.40
2016,12,04,00,40,6.40
2016,12,04,00,41,6.40
2016,12,04,00,42,6.40
2016,12,04,00,43,6.40
2016,12,04,00,44,6.40
2016,12,04,00,45,6.30
2016,12,04,00,46,6.30
2016,12,04,00,47,6.30
2016,12,04,00,48,6.30
2016,12,04,00,49,6.30
2016,12,04,00,50,6.30
2016,12,04,00,51,6.30
2016,12,04,00,52,6.30
2016,12,04,00,53,6.30
2016,12,04,00,54,6.30
2016,12,04,00,55,6.30
2016,12,04,00,56,6.30
2016,12,04,00,57,6.30
2016,12,04,00,58,6.30
2016,12,04,00,59,6.30
2016,12,04,01,00,6.30
2016,12,04,01,01,6.30
2016,12,04,01,02,6.30
2016,12,04,01,03,6.30
2016,12,04,01,04,6.30
2016,12,04,01,05,6.30
2016,12,04,01,06,6.30
2016,12,04,01,07,6.30
2016,12,04,01,08,6.30
2016,12,04,01,09,6.30
2016,12,04,01,10,6.30
2016,12,04,01,11,6.30
2016,12,04,01,12,6.30
2016,12,04,01,13,6.20
2016,12,04,01,14,6.20
2016,12,04,01,15,6.20
2016,12,04,01,16,6.20
2016,12,04,01,17,6.20
2016,12,04,01,18,6.20
2016,12,04,01,19,6.30
2016,12,04,01,20,6.30
2016,12,04,01,21,6.30
2016,12,04,01,22,6.20
2016,12,04,01,23,6.30
2016,12,04,01,24,6.20
2016,12,04,01,25,6.20
2016,12,04,01,26,6.30
2016,12,04,01,27,6.20
2016,12,04,01,28,6.30
2016,12,04,01,29,6.30
2016,12,04,01,30,6.30
2016,12,04,01,31,6.30
2016,12,04,01,32,6.30
2016,12,04,01,33,6.30
2016,12,04,01,34,6.30
2016,12,04,01,35,6.30
2016,12,04,01,36,6.30
2016,12,04,01,37,6.30
2016,12,04,01,38,6.30
2016,12,04,01,39,6.30
2016,12,04,01,40,6.30
2016,12,04,01,41,6.30
2016,12,04,01,42,6.30
2016,12,04,01,43,6.30
2016,12,04,01,44,6.30
2016,12,04,01,45,6.30
2016,12,04,01,46,6.30
2016,12,04,01,47,6.30
2016,12,04,01,48,6.30
2016,12,04,01,49,6.30
2016,12,04,01,50,6.30
2016,12,04,01,51,6.20
2016,12,04,01,52,6.20
2016,12,04,01,53,6.20
2016,12,04,01,54,6.20
2016,12,04,01,55,6.20
2016,12,04,01,56,6.20
2016,12,04,01,57,6.20
2016,12,04,01,58,6.10
2016,12,04,01,59,6.10
2016,12,04,02,00,6.10
2016,12,04,02,01,6.10
2016,12,04,02,02,6.10
2016,12,04,02,03,6.10
2016,12,04,02,04,6.10
2016,12,04,02,05,6.10
2016,12,04,02,06,6.10
2016,12,04,02,07,6.10
2016,12,04,02,08,6.10
2016,12,04,02,09,6.10
2016,12,04,02,10,6.00
2016,12,04,02,11,6.00
2016,12,04,02,12,6.10
2016,12,04,02,13,6.00
2016,12,04,02,14,6.00
2016,12,04,02,15,6.00
2016,12,04,02,16,6.00
2016,12,04,02,17,6.00
2016,12,04,02,18,6.00
2016,12,04,02,19,6.00
2016,12,04,02,20,6.00
2016,12,04,02,21,6.00
2016,12,04,02,22,6.00
2016,12,04,02,23,6.00
2016,12,04,02,24,6.00
2016,12,04,02,25,6.00
2016,12,04,02,26,6.00
2016,12,04,02,27,6.00
2016,12,04,02,28,6.00
2016,12,04,02,29,6.00
2016,12,04,02,30,6.00
2016,12,04,02,31,6.00
2016,12,04,02,32,6.00
2016,12,04,02,33,6.00
2016,12,04,02,34,6.00
2016,12,04,02,35,6.00
2016,12,04,02,36,5.90
2016,12,04,02,37,5.90
2016,12,04,02,38,5.90
2016,12,04,02,39,5.90
2016,12,04,02,40,5.90
2016,12,04,02,41,5.90
2016,12,04,02,42,5.90
2016,12,04,02,43,5.90
2016,12,04,02,44,5.90
2016,12,04,02,45,5.90
2016,12,04,02,46,5.90
2016,12,04,02,47,5.90
2016,12,04,02,48,5.90
2016,12,04,02,49,5.90
2016,12,04,02,50,5.90
2016,12,04,02,51,5.90
2016,12,04,02,52,5.90
2016,12,04,02,53,5.80
2016,12,04,02,54,5.90
2016,12,04,02,55,5.90
2016,12,04,02,56,5.90
2016,12,04,02,57,5.90
2016,12,04,02,58,5.90
2016,12,04,02,59,5.90
2016,12,04,03,00,5.90
2016,12,04,03,01,5.90
2016,12,04,03,02,5.90
2016,12,04,03,03,5.90
2016,12,04,03,04,5.90
2016,12,04,03,05,5.90
2016,12,04,03,06,5.90
2016,12,04,03,07,5.90
2016,12,04,03,08,5.90
2016,12,04,03,09,5.90
2016,12,04,03,10,5.90
2016,12,04,03,11,5.90
2016,12,04,03,12,5.90
2016,12,04,03,13,5.90
2016,12,04,03,14,5.90
2016,12,04,03,15,5.90
2016,12,04,03,16,5.90
2016,12,04,03,17,5.90
2016,12,04,03,18,5.90
2016,12,04,03,19,5.90
2016,12,04,03,20,5.90
2016,12,04,03,21,5.90
2016,12,04,03,22,5.90
2016,12,04,03,23,5.90
2016,12,04,03,24,5.90
2016,12,04,03,25,5.90
2016,12,04,03,26,5.90
2016,12,04,03,27,5.80
2016,12,04,03,28,5.80
2016,12,04,03,29,5.80
2016,12,04,03,30,5.80
2016,12,04,03,31,5.80
2016,12,04,03,32,5.80
2016,12,04,03,33,5.80
2016,12,04,03,34,5.80
2016,12,04,03,35,5.80
2016,12,04,03,36,5.80
2016,12,04,03,37,5.80
2016,12,04,03,38,5.80
2016,12,04,03,39,5.70
2016,12,04,03,40,5.70
2016,12,04,03,41,5.70
2016,12,04,03,42,5.70
2016,12,04,03,43,5.70
2016,12,04,03,44,5.70
2016,12,04,03,45,5.70
2016,12,04,03,46,5.70
2016,12,04,03,47,5.70
2016,12,04,03,48,5.70
2016,12,04,03,49,5.70
2016,12,04,03,50,5.60
2016,12,04,03,51,5.60
2016,12,04,03,52,5.60
2016,12,04,03,53,5.60
2016,12,04,03,54,5.60
2016,12,04,03,55,5.60
2016,12,04,03,56,5.60
2016,12,04,03,57,5.50
2016,12,04,03,58,5.50
2016,12,04,03,59,5.50
2016,12,04,04,00,5.50
2016,12,04,04,01,5.50
2016,12,04,04,02,5.50
2016,12,04,04,03,5.50
2016,12,04,04,04,5.50
2016,12,04,04,05,5.50
2016,12,04,04,06,5.40
2016,12,04,04,07,5.50
2016,12,04,04,08,5.40
2016,12,04,04,09,5.40
2016,12,04,04,10,5.40
2016,12,04,04,11,5.40
2016,12,04,04,12,5.40
2016,12,04,04,13,5.40
2016,12,04,04,14,5.40
2016,12,04,04,15,5.40
2016,12,04,04,16,5.40
2016,12,04,04,17,5.40
2016,12,04,04,18,5.40
2016,12,04,04,19,5.40
2016,12,04,04,20,5.40
2016,12,04,04,21,5.40
2016,12,04,04,22,5.40
2016,12,04,04,23,5.40
2016,12,04,04,24,5.40
2016,12,04,04,25,5.40
2016,12,04,04,26,5.40
2016,12,04,04,27,5.40
2016,12,04,04,28,5.40
2016,12,04,04,29,5.40
2016,12,04,04,30,5.40
2016,12,04,04,31,5.40
2016,12,04,04,32,5.40
2016,12,04,04,33,5.30
2016,12,04,04,34,5.30
2016,12,04,04,35,5.30
2016,12,04,04,36,5.40
2016,12,04,04,37,5.30
2016,12,04,04,38,5.40
2016,12,04,04,39,5.40
2016,12,04,04,40,5.40
2016,12,04,04,41,5.30
2016,12,04,04,42,5.30
2016,12,04,04,43,5.30
2016,12,04,04,44,5.30
2016,12,04,04,45,5.30
2016,12,04,04,46,5.30
2016,12,04,04,47,5.20
2016,12,04,04,48,5.20
2016,12,04,04,49,5.20
2016,12,04,04,50,5.20
2016,12,04,04,51,5.10
2016,12,04,04,52,5.10
2016,12,04,04,53,5.10
2016,12,04,04,54,5.00
2016,12,04,04,55,5.00
2016,12,04,04,56,4.90
2016,12,04,04,57,4.90
2016,12,04,04,58,4.90
2016,12,04,04,59,4.90
2016,12,04,05,00,4.90
2016,12,04,05,01,4.90
2016,12,04,05,02,4.90
2016,12,04,05,03,4.90
2016,12,04,05,04,4.90
2016,12,04,05,05,4.90
2016,12,04,05,06,4.90
2016,12,04,05,07,5.00
2016,12,04,05,08,5.00
2016,12,04,05,09,5.00
2016,12,04,05,10,5.00
2016,12,04,05,11,5.00
2016,12,04,05,12,5.00
2016,12,04,05,13,5.10
2016,12,04,05,14,5.10
2016,12,04,05,15,5.10
2016,12,04,05,16,5.10
2016,12,04,05,17,5.10
2016,12,04,05,18,5.10
2016,12,04,05,19,5.00
2016,12,04,05,20,5.00
2016,12,04,05,21,5.00
2016,12,04,05,22,5.00
2016,12,04,05,23,5.00
2016,12,04,05,24,5.00
2016,12,04,05,25,5.00
2016,12,04,05,26,5.00
2016,12,04,05,27,5.00
2016,12,04,05,28,5.00
2016,12,04,05,29,4.90
2016,12,04,05,30,4.90
2016,12,04,05,31,4.90
2016,12,04,05,32,4.90
2016,12,04,05,33,4.90
2016,12,04,05,34,4.90
2016,12,04,05,35,4.90
2016,12,04,05,36,4.90
2016,12,04,05,37,4.90
2016,12,04,05,38,4.90
2016,12,04,05,39,4.90
2016,12,04,05,40,4.90
2016,12,04,05,41,4.90
2016,12,04,05,42,4.90
2016,12,04,05,43,4.90
2016,12,04,05,44,4.90
2016,12,04,05,45,4.90
2016,12,04,05,46,4.90
2016,12,04,05,47,4.90
2016,12,04,05,48,4.90
2016,12,04,05,49,4.90
2016,12,04,05,50,4.90
2016,12,04,05,51,4.80
2016,12,04,05,52,4.80
2016,12,04,05,53,4.80
2016,12,04,05,54,4.80
2016,12,04,05,55,4.80
2016,12,04,05,56,4.80
2016,12,04,05,57,4.80
2016,12,04,05,58,4.80
2016,12,04,05,59,4.70
2016,12,04,06,00,4.70
2016,12,04,06,01,4.70
2016,12,04,06,02,4.70
2016,12,04,06,03,4.70
2016,12,04,06,04,4.70
2016,12,04,06,05,4.70
2016,12,04,06,06,4.60
2016,12,04,06,07,4.60
2016,12,04,06,08,4.60
2016,12,04,06,09,4.60
2016,12,04,06,10,4.60
2016,12,04,06,11,4.60
2016,12,04,06,12,4.70
2016,12,04,06,13,4.70
2016,12,04,06,14,4.70
2016,12,04,06,15,4.70
2016,12,04,06,16,4.70
2016,12,04,06,17,4.70
2016,12,04,06,18,4.70
2016,12,04,06,19,4.70
2016,12,04,06,20,4.70
2016,12,04,06,21,4.70
2016,12,04,06,22,4.70
2016,12,04,06,23,4.70
2016,12,04,06,24,4.60
2016,12,04,06,25,4.60
2016,12,04,06,26,4.60
2016,12,04,06,27,4.60
2016,12,04,06,28,4.50
2016,12,04,06,29,4.50
2016,12,04,06,30,4.40
2016,12,04,06,31,4.40
2016,12,04,06,32,4.30
2016,12,04,06,33,4.30
2016,12,04,06,34,4.30
2016,12,04,06,35,4.20
2016,12,04,06,36,4.20
2016,12,04,06,37,4.20
2016,12,04,06,38,4.10
2016,12,04,06,39,4.10
2016,12,04,06,40,4.10
2016,12,04,06,41,4.10
2016,12,04,06,42,4.10
2016,12,04,06,43,4.10
2016,12,04,06,44,4.10
2016,12,04,06,45,4.20
2016,12,04,06,46,4.20
2016,12,04,06,47,4.20
2016,12,04,06,48,4.20
2016,12,04,06,49,4.20
2016,12,04,06,50,4.20
2016,12,04,06,51,4.20
2016,12,04,06,52,4.20
2016,12,04,06,53,4.20
2016,12,04,06,54,4.20
2016,12,04,06,55,4.20
2016,12,04,06,56,4.20
2016,12,04,06,57,4.10
2016,12,04,06,58,4.10
2016,12,04,06,59,4.10
2016,12,04,07,00,4.00
2016,12,04,07,01,4.00
2016,12,04,07,02,4.00
2016,12,04,07,03,3.90
2016,12,04,07,04,3.90
2016,12,04,07,05,3.90
2016,12,04,07,06,3.90
2016,12,04,07,07,3.90
2016,12,04,07,08,3.80
2016,12,04,07,09,3.80
2016,12,04,07,10,3.80
2016,12,04,07,11,3.80
2016,12,04,07,12,3.70
2016,12,04,07,13,3.70
2016,12,04,07,14,3.70
2016,12,04,07,15,3.60
2016,12,04,07,16,3.60
2016,12,04,07,17,3.60
2016,12,04,07,18,3.50
2016,12,04,07,19,3.40
2016,12,04,07,20,3.40
2016,12,04,07,21,3.30
2016,12,04,07,22,3.30
2016,12,04,07,23,3.30
2016,12,04,07,24,3.30
2016,12,04,07,25,3.20
2016,12,04,07,26,3.20
2016,12,04,07,27,3.20
2016,12,04,07,28,3.20
2016,12,04,07,29,3.20
2016,12,04,07,30,3.20
2016,12,04,07,31,3.10
2016,12,04,07,32,3.10
2016,12,04,07,33,3.10
2016,12,04,07,34,3.10
2016,12,04,07,35,3.10
2016,12,04,07,36,3.10
2016,12,04,07,37,3.10
2016,12,04,07,38,3.10
2016,12,04,07,39,3.10
2016,12,04,07,40,3.20
2016,12,04,07,41,3.20
2016,12,04,07,42,3.20
2016,12,04,07,43,3.20
2016,12,04,07,44,3.20
2016,12,04,07,45,3.30
2016,12,04,07,46,3.20
2016,12,04,07,47,3.20
2016,12,04,07,48,3.20
2016,12,04,07,49,3.20
2016,12,04,07,50,3.20
2016,12,04,07,51,3.10
2016,12,04,07,52,3.10
2016,12,04,07,53,3.10
2016,12,04,07,54,3.10
2016,12,04,07,55,3.10
2016,12,04,07,56,3.10
2016,12,04,07,57,3.10
2016,12,04,07,58,3.10
2016,12,04,07,59,3.10
2016,12,04,08,00,3.10
2016,12,04,08,01,3.00
2016,12,04,08,02,3.00
2016,12,04,08,03,3.00
2016,12,04,08,04,3.00
2016,12,04,08,05,3.00
2016,12,04,08,06,2.90
2016,12,04,08,07,2.90
2016,12,04,08,08,2.90
2016,12,04,08,09,2.90
2016,12,04,08,10,2.90
2016,12,04,08,11,2.90
2016,12,04,08,12,2.90
2016,12,04,08,13,2.90
2016,12,04,08,14,2.90
2016,12,04,08,15,2.90
2016,12,04,08,16,2.90
2016,12,04,08,17,2.90
2016,12,04,08,18,2.90
2016,12,04,08,19,2.90
2016,12,04,08,20,2.90
2016,12,04,08,21,2.90
2016,12,04,08,22,2.90
2016,12,04,08,23,2.90
2016,12,04,08,24,2.90
2016,12,04,08,25,2.80
2016,12,04,08,26,2.80
2016,12,04,08,27,2.80
2016,12,04,08,28,2.80
2016,12,04,08,29,2.90
2016,12,04,08,30,2.90
2016,12,04,08,31,2.90
2016,12,04,08,32,2.90
2016,12,04,08,33,3.00
2016,12,04,08,34,3.00
2016,12,04,08,35,3.10
2016,12,04,08,36,3.10
2016,12,04,08,37,3.10
2016,12,04,08,38,3.20
2016,12,04,08,39,3.20
2016,12,04,08,40,3.30
2016,12,04,08,41,3.30
2016,12,04,08,42,3.30
2016,12,04,08,43,3.40
2016,12,04,08,44,3.40
2016,12,04,08,45,3.50
2016,12,04,08,46,3.50
2016,12,04,08,47,3.60
2016,12,04,08,48,3.60
2016,12,04,08,49,3.70
2016,12,04,08,50,3.70
2016,12,04,08,51,3.70
2016,12,04,08,52,3.80
2016,12,04,08,53,3.80
2016,12,04,08,54,3.90
2016,12,04,08,55,4.00
2016,12,04,08,56,4.00
2016,12,04,08,57,4.10
2016,12,04,08,58,4.10
2016,12,04,08,59,4.20
2016,12,04,09,00,4.20
2016,12,04,09,01,4.20
2016,12,04,09,02,4.30
2016,12,04,09,03,4.30
2016,12,04,09,04,4.30
2016,12,04,09,05,4.40
2016,12,04,09,06,4.40
2016,12,04,09,07,4.40
2016,12,04,09,08,4.50
2016,12,04,09,09,4.60
2016,12,04,09,10,4.70
2016,12,04,09,11,4.70
2016,12,04,09,12,4.80
2016,12,04,09,13,4.80
2016,12,04,09,14,4.80
2016,12,04,09,15,4.90
2016,12,04,09,16,4.90
2016,12,04,09,17,4.90
2016,12,04,09,18,4.90
2016,12,04,09,19,5.00
2016,12,04,09,20,5.00
2016,12,04,09,21,5.00
2016,12,04,09,22,5.10
2016,12,04,09,23,5.10
2016,12,04,09,24,5.10
2016,12,04,09,25,5.10
2016,12,04,09,26,5.20
2016,12,04,09,27,5.20
2016,12,04,09,28,5.20
2016,12,04,09,29,5.30
2016,12,04,09,30,5.30
2016,12,04,09,31,5.30
2016,12,04,09,32,5.30
2016,12,04,09,33,5.40
2016,12,04,09,34,5.50
2016,12,04,09,35,5.50
2016,12,04,09,36,5.60
2016,12,04,09,37,5.60
2016,12,04,09,38,5.60
2016,12,04,09,39,5.60
2016,12,04,09,40,5.70
2016,12,04,09,41,5.70
2016,12,04,09,42,5.70
2016,12,04,09,43,5.70
2016,12,04,09,44,5.80
2016,12,04,09,45,5.80
2016,12,04,09,46,5.80
2016,12,04,09,47,5.80
2016,12,04,09,48,5.80
2016,12,04,09,49,5.90
2016,12,04,09,50,5.90
2016,12,04,09,51,5.90
2016,12,04,09,52,5.90
2016,12,04,09,53,6.00
2016,12,04,09,54,6.00
2016,12,04,09,55,6.00
2016,12,04,09,56,6.10
2016,12,04,09,57,6.10
2016,12,04,09,58,6.10
2016,12,04,09,59,6.10
2016,12,04,10,00,6.20
2016,12,04,10,01,6.20
2016,12,04,10,02,6.20
2016,12,04,10,03,6.20
2016,12,04,10,04,6.20
2016,12,04,10,05,6.30
2016,12,04,10,06,6.30
2016,12,04,10,07,6.30
2016,12,04,10,08,6.30
2016,12,04,10,09,6.40
2016,12,04,10,10,6.40
2016,12,04,10,11,6.40
2016,12,04,10,12,6.40
2016,12,04,10,13,6.40
2016,12,04,10,14,6.40
2016,12,04,10,15,6.40
2016,12,04,10,16,6.40
2016,12,04,10,17,6.40
2016,12,04,10,18,6.50
2016,12,04,10,19,6.50
2016,12,04,10,20,6.50
2016,12,04,10,21,6.50
2016,12,04,10,22,6.50
2016,12,04,10,23,6.50
2016,12,04,10,24,6.50
2016,12,04,10,25,6.50
2016,12,04,10,26,6.50
2016,12,04,10,27,6.60
2016,12,04,10,28,6.60
2016,12,04,10,29,6.60
2016,12,04,10,30,6.60
2016,12,04,10,31,6.60
2016,12,04,10,32,6.60
2016,12,04,10,33,6.60
2016,12,04,10,34,6.60
2016,12,04,10,35,6.60
2016,12,04,10,36,6.70
2016,12,04,10,37,6.70
2016,12,04,10,38,6.70
2016,12,04,10,39,6.70
2016,12,04,10,40,6.70
2016,12,04,10,41,6.70
2016,12,04,10,42,6.70
2016,12,04,10,43,6.70
2016,12,04,10,44,6.70
2016,12,04,10,45,6.70
2016,12,04,10,46,6.70
2016,12,04,10,47,6.70
2016,12,04,10,48,6.80
2016,12,04,10,49,6.80
2016,12,04,10,50,6.80
2016,12,04,10,51,6.80
2016,12,04,10,52,6.80
2016,12,04,10,53,6.80
2016,12,04,10,54,6.80
2016,12,04,10,55,6.80
2016,12,04,10,56,6.80
2016,12,04,10,57,6.80
2016,12,04,10,58,6.80
2016,12,04,10,59,6.80
2016,12,04,11,00,6.80
2016,12,04,11,01,6.70
2016,12,04,11,02,6.70
2016,12,04,11,03,6.70
2016,12,04,11,04,6.70
2016,12,04,11,05,6.70
2016,12,04,11,06,6.70
2016,12,04,11,07,6.70
2016,12,04,11,08,6.70
2016,12,04,11,09,6.70
2016,12,04,11,10,6.70
2016,12,04,11,11,6.70
2016,12,04,11,12,6.80
2016,12,04,11,13,6.80
2016,12,04,11,14,6.80
2016,12,04,11,15,6.80
2016,12,04,11,16,6.80
2016,12,04,11,17,6.80
2016,12,04,11,18,6.80
2016,12,04,11,19,6.80
2016,12,04,11,20,6.80
2016,12,04,11,21,6.80
2016,12,04,11,22,6.90
2016,12,04,11,23,6.90
2016,12,04,11,24,6.90
2016,12,04,11,25,6.90
2016,12,04,11,26,6.90
2016,12,04,11,27,6.90
2016,12,04,11,28,6.90
2016,12,04,11,29,7.00
2016,12,04,11,30,7.00
2016,12,04,11,31,7.00
2016,12,04,11,32,7.00
2016,12,04,11,33,7.00
2016,12,04,11,34,7.00
2016,12,04,11,35,7.00
2016,12,04,11,36,7.00
2016,12,04,11,37,7.00
2016,12,04,11,38,7.10
2016,12,04,11,39,7.10
2016,12,04,11,40,7.10
2016,12,04,11,41,7.10
2016,12,04,11,42,7.20
2016,12,04,11,43,7.20
2016,12,04,11,44,7.20
2016,12,04,11,45,7.20
2016,12,04,11,46,7.20
2016,12,04,11,47,7.20
2016,12,04,11,48,7.20
2016,12,04,11,49,7.20
2016,12,04,11,50,7.20
2016,12,04,11,51,7.20
2016,12,04,11,52,7.20
2016,12,04,11,53,7.30
2016,12,04,11,54,7.30
2016,12,04,11,55,7.30
2016,12,04,11,56,7.20
2016,12,04,11,57,7.30
2016,12,04,11,58,7.30
2016,12,04,11,59,7.30
2016,12,04,12,00,7.30
2016,12,04,12,01,7.30
2016,12,04,12,02,7.30
2016,12,04,12,03,7.30
2016,12,04,12,04,7.30
2016,12,04,12,05,7.40
2016,12,04,12,06,7.40
2016,12,04,12,07,7.40
2016,12,04,12,08,7.40
2016,12,04,12,09,7.40
2016,12,04,12,10,7.40
2016,12,04,12,11,7.40
2016,12,04,12,12,7.40
2016,12,04,12,13,7.40
2016,12,04,12,14,7.40
2016,12,04,12,15,7.40
2016,12,04,12,16,7.40
2016,12,04,12,17,7.40
2016,12,04,12,18,7.40
2016,12,04,12,19,7.40
2016,12,04,12,20,7.40
2016,12,04,12,21,7.40
2016,12,04,12,22,7.40
2016,12,04,12,23,7.40
2016,12,04,12,24,7.40
2016,12,04,12,25,7.40
2016,12,04,12,26,7.40
2016,12,04,12,27,7.50
2016,12,04,12,28,7.50
2016,12,04,12,29,7.50
2016,12,04,12,30,7.50
2016,12,04,12,31,7.60
2016,12,04,12,32,7.60
2016,12,04,12,33,7.60
2016,12,04,12,34,7.60
2016,12,04,12,35,7.60
2016,12,04,12,36,7.60
2016,12,04,12,37,7.60
2016,12,04,12,38,7.60
2016,12,04,12,39,7.60
2016,12,04,12,40,7.60
2016,12,04,12,41,7.50
2016,12,04,12,42,7.60
2016,12,04,12,43,7.60
2016,12,04,12,44,7.60
2016,12,04,12,45,7.60
2016,12,04,12,46,7.60
2016,12,04,12,47,7.60
2016,12,04,12,48,7.60
2016,12,04,12,49,7.70
2016,12,04,12,50,7.70
2016,12,04,12,51,7.70
2016,12,04,12,52,7.70
2016,12,04,12,53,7.70
2016,12,04,12,54,7.70
2016,12,04,12,55,7.70
2016,12,04,12,56,7.70
2016,12,04,12,57,7.70
2016,12,04,12,58,7.70
2016,12,04,12,59,7.70
2016,12,04,13,00,7.70
2016,12,04,13,01,7.70
2016,12,04,13,02,7.70
2016,12,04,13,03,7.70
2016,12,04,13,04,7.70
2016,12,04,13,05,7.70
2016,12,04,13,06,7.70
2016,12,04,13,07,7.70
2016,12,04,13,08,7.70
2016,12,04,13,09,7.70
2016,12,04,13,10,7.80
2016,12,04,13,11,7.80
2016,12,04,13,12,7.80
2016,12,04,13,13,7.80
2016,12,04,13,14,7.80
2016,12,04,13,15,7.80
2016,12,04,13,16,7.80
2016,12,04,13,17,7.80
2016,12,04,13,18,7.80
2016,12,04,13,19,7.80
2016,12,04,13,20,7.70
2016,12,04,13,21,7.70
2016,12,04,13,22,7.70
2016,12,04,13,23,7.70
2016,12,04,13,24,7.70
2016,12,04,13,25,7.70
2016,12,04,13,26,7.70
2016,12,04,13,27,7.70
2016,12,04,13,28,7.70
2016,12,04,13,29,7.70
2016,12,04,13,30,7.70
2016,12,04,13,31,7.70
2016,12,04,13,32,7.70
2016,12,04,13,33,7.70
2016,12,04,13,34,7.70
2016,12,04,13,35,7.70
2016,12,04,13,36,7.60
2016,12,04,13,37,7.60
2016,12,04,13,38,7.60
2016,12,04,13,39,7.60
2016,12,04,13,40,7.60
2016,12,04,13,41,7.60
2016,12,04,13,42,7.60
2016,12,04,13,43,7.60
2016,12,04,13,44,7.50
2016,12,04,13,45,7.50
2016,12,04,13,46,7.50
2016,12,04,13,47,7.50
2016,12,04,13,48,7.50
2016,12,04,13,49,7.50
2016,12,04,13,50,7.50
2016,12,04,13,51,7.50
2016,12,04,13,52,7.50
2016,12,04,13,53,7.50
2016,12,04,13,54,7.50
2016,12,04,13,55,7.50
2016,12,04,13,56,7.50
2016,12,04,13,57,7.50
2016,12,04,13,58,7.50
2016,12,04,13,59,7.50
2016,12,04,14,00,7.50
2016,12,04,14,01,7.50
2016,12,04,14,02,7.50
2016,12,04,14,03,7.50
2016,12,04,14,04,7.50
2016,12,04,14,05,7.50
2016,12,04,14,06,7.50
2016,12,04,14,07,7.50
2016,12,04,14,08,7.50
2016,12,04,14,09,7.50
2016,12,04,14,10,7.50
2016,12,04,14,11,7.50
2016,12,04,14,12,7.50
2016,12,04,14,13,7.50
2016,12,04,14,14,7.50
2016,12,04,14,15,7.60
2016,12,04,14,16,7.60
2016,12,04,14,17,7.60
2016,12,04,14,18,7.60
2016,12,04,14,19,7.60
2016,12,04,14,20,7.60
2016,12,04,14,21,7.60
2016,12,04,14,22,7.60
2016,12,04,14,23,7.60
2016,12,04,14,24,7.60
2016,12,04,14,25,7.60
2016,12,04,14,26,7.60
2016,12,04,14,27,7.60
2016,12,04,14,28,7.60
2016,12,04,14,29,7.60
2016,12,04,14,30,7.60
2016,12,04,14,31,7.60
2016,12,04,14,32,7.60
2016,12,04,14,33,7.60
2016,12,04,14,34,7.60
2016,12,04,14,35,7.60
2016,12,04,14,36,7.60
2016,12,04,14,37,7.60
2016,12,04,14,38,7.60
2016,12,04,14,39,7.60
2016,12,04,14,40,7.60
2016,12,04,14,41,7.60
2016,12,04,14,42,7.60
2016,12,04,14,43,7.60
2016,12,04,14,44,7.60
2016,12,04,14,45,7.60
2016,12,04,14,46,7.60
2016,12,04,14,47,7.60
2016,12,04,14,48,7.60
2016,12,04,14,49,7.50
2016,12,04,14,50,7.50
2016,12,04,14,51,7.50
2016,12,04,14,52,7.50
2016,12,04,14,53,7.50
2016,12,04,14,54,7.50
2016,12,04,14,55,7.50
2016,12,04,14,56,7.50
2016,12,04,14,57,7.50
2016,12,04,14,58,7.50
2016,12,04,14,59,7.50
2016,12,04,15,00,7.50
2016,12,04,15,01,7.50
2016,12,04,15,02,7.50
2016,12,04,15,03,7.50
2016,12,04,15,04,7.50
2016,12,04,15,05,7.50
2016,12,04,15,06,7.50
2016,12,04,15,07,7.40
2016,12,04,15,08,7.40
2016,12,04,15,09,7.40
2016,12,04,15,10,7.40
2016,12,04,15,11,7.40
2016,12,04,15,12,7.40
2016,12,04,15,13,7.40
2016,12,04,15,14,7.40
2016,12,04,15,15,7.40
2016,12,04,15,16,7.40
2016,12,04,15,17,7.40
2016,12,04,15,18,7.40
2016,12,04,15,19,7.40
2016,12,04,15,20,7.40
2016,12,04,15,21,7.40
2016,12,04,15,22,7.40
2016,12,04,15,23,7.40
2016,12,04,15,24,7.40
2016,12,04,15,25,7.40
2016,12,04,15,26,7.40
2016,12,04,15,27,7.40
2016,12,04,15,28,7.40
2016,12,04,15,29,7.40
2016,12,04,15,30,7.40
2016,12,04,15,31,7.30
2016,12,04,15,32,7.30
2016,12,04,15,33,7.30
2016,12,04,15,34,7.30
2016,12,04,15,35,7.30
2016,12,04,15,36,7.30
2016,12,04,15,37,7.30
2016,12,04,15,38,7.30
2016,12,04,15,39,7.30
2016,12,04,15,40,7.30
2016,12,04,15,41,7.30
2016,12,04,15,42,7.30
2016,12,04,15,43,7.30
2016,12,04,15,44,7.30
2016,12,04,15,45,7.30
2016,12,04,15,46,7.30
2016,12,04,15,47,7.30
2016,12,04,15,48,7.30
2016,12,04,15,49,7.30
2016,12,04,15,50,7.30
2016,12,04,15,51,7.30
2016,12,04,15,52,7.30
2016,12,04,15,53,7.30
2016,12,04,15,54,7.30
2016,12,04,15,55,7.30
2016,12,04,15,56,7.30
2016,12,04,15,57,7.30
2016,12,04,15,58,7.30
2016,12,04,15,59,7.20
2016,12,04,16,00,7.20
2016,12,04,16,01,7.20
2016,12,04,16,02,7.20
2016,12,04,16,03,7.20
2016,12,04,16,04,7.20
2016,12,04,16,05,7.10
2016,12,04,16,06,7.10
2016,12,04,16,07,7.10
2016,12,04,16,08,7.10
2016,12,04,16,09,7.10
2016,12,04,16,10,7.00
2016,12,04,16,11,7.00
2016,12,04,16,12,7.00
2016,12,04,16,13,7.00
2016,12,04,16,14,6.90
2016,12,04,16,15,6.90
2016,12,04,16,16,6.90
2016,12,04,16,17,6.90
2016,12,04,16,18,6.80
2016,12,04,16,19,6.80
2016,12,04,16,20,6.80
2016,12,04,16,21,6.80
2016,12,04,16,22,6.80
2016,12,04,16,23,6.80
2016,12,04,16,24,6.80
2016,12,04,16,25,6.80
2016,12,04,16,26,6.80
2016,12,04,16,27,6.70
2016,12,04,16,28,6.70
2016,12,04,16,29,6.70
2016,12,04,16,30,6.70
2016,12,04,16,31,6.70
2016,12,04,16,32,6.70
2016,12,04,16,33,6.70
2016,12,04,16,34,6.70
2016,12,04,16,35,6.70
2016,12,04,16,36,6.60
2016,12,04,16,37,6.60
2016,12,04,16,38,6.60
2016,12,04,16,39,6.60
2016,12,04,16,40,6.60
2016,12,04,16,41,6.60
2016,12,04,16,42,6.60
2016,12,04,16,43,6.50
2016,12,04,16,44,6.50
2016,12,04,16,45,6.50
2016,12,04,16,46,6.40
2016,12,04,16,47,6.40
2016,12,04,16,48,6.40
2016,12,04,16,49,6.40
2016,12,04,16,50,6.30
2016,12,04,16,51,6.30
2016,12,04,16,52,6.30
2016,12,04,16,53,6.30
2016,12,04,16,54,6.30
2016,12,04,16,55,6.20
2016,12,04,16,56,6.20
2016,12,04,16,57,6.20
2016,12,04,16,58,6.20
2016,12,04,16,59,6.20
2016,12,04,17,00,6.10
2016,12,04,17,01,6.10
2016,12,04,17,02,6.10
2016,12,04,17,03,6.10
2016,12,04,17,04,6.10
2016,12,04,17,05,6.00
2016,12,04,17,06,6.00
2016,12,04,17,07,5.90
2016,12,04,17,08,5.90
2016,12,04,17,09,5.90
2016,12,04,17,10,5.90
2016,12,04,17,11,5.80
2016,12,04,17,12,5.80
2016,12,04,17,13,5.80
2016,12,04,17,14,5.80
2016,12,04,17,15,5.80
2016,12,04,17,16,5.70
2016,12,04,17,17,5.70
2016,12,04,17,18,5.70
2016,12,04,17,19,5.70
2016,12,04,17,20,5.70
2016,12,04,17,21,5.70
2016,12,04,17,22,5.70
2016,12,04,17,23,5.70
2016,12,04,17,24,5.70
2016,12,04,17,25,5.60
2016,12,04,17,26,5.60
2016,12,04,17,27,5.60
2016,12,04,17,28,5.60
2016,12,04,17,29,5.60
2016,12,04,17,30,5.60
2016,12,04,17,31,5.60
2016,12,04,17,32,5.60
2016,12,04,17,33,5.60
2016,12,04,17,34,5.50
2016,12,04,17,35,5.50
2016,12,04,17,36,5.50
2016,12,04,17,37,5.50
2016,12,04,17,38,5.40
2016,12,04,17,39,5.40
2016,12,04,17,40,5.40
2016,12,04,17,41,5.40
2016,12,04,17,42,5.40
2016,12,04,17,43,5.40
2016,12,04,17,44,5.30
2016,12,04,17,45,5.30
2016,12,04,17,46,5.30
2016,12,04,17,47,5.30
2016,12,04,17,48,5.30
2016,12,04,17,49,5.30
2016,12,04,17,50,5.30
2016,12,04,17,51,5.30
2016,12,04,17,52,5.30
2016,12,04,17,53,5.30
2016,12,04,17,54,5.30
2016,12,04,17,55,5.30
2016,12,04,17,56,5.30
2016,12,04,17,57,5.30
2016,12,04,17,58,5.30
2016,12,04,17,59,5.30
2016,12,04,18,00,5.30
2016,12,04,18,01,5.20
2016,12,04,18,02,5.20
2016,12,04,18,03,5.20
2016,12,04,18,04,5.20
2016,12,04,18,05,5.20
2016,12,04,18,06,5.20